﻿_id,日時,平均風速(m/s),平均風向,最大瞬間風速(m/s),最大風速時風向,気温(℃),湿度(%),10分間移動積算雨量(mm),1時間移動積算雨量(mm),日雨量(mm),累計雨量(mm),日射(日積算)(MJ/m2),日照(日積算)(min),現地気圧(hPa),海面気圧(hPa)
1,2023-01-23T00:00:00,0.4,北東,1.4,東北東,3.4,84.4,0,0,0,0,9.66,253,1009.7,1024.2
2,2023-01-23T00:01:00,0.5,北東,1.4,東北東,3.4,84.2,0,0,0,0,0,0,1009.8,1024.3
3,2023-01-23T00:02:00,0.5,東北東,1.4,東北東,3.4,84.4,0,0,0,0,0,0,1009.8,1024.3
4,2023-01-23T00:03:00,0.5,東北東,1.4,東北東,3.4,84.6,0,0,0,0,0,0,1009.7,1024.2
5,2023-01-23T00:04:00,0.6,東北東,1.4,東北東,3.6,85.2,0,0,0,0,0,0,1009.6,1024.1
6,2023-01-23T00:05:00,0.6,北東,1.4,東北東,3.5,85.4,0,0,0,0,0,0,1009.6,1024.1
7,2023-01-23T00:06:00,0.6,北東,1.4,東北東,3.6,85.4,0,0,0,0,0,0,1009.6,1024.1
8,2023-01-23T00:07:00,0.5,北東,1.4,東北東,3.5,85.1,0,0,0,0,0,0,1009.7,1024.2
9,2023-01-23T00:08:00,0.5,北東,1.2,東北東,3.5,85,0,0,0,0,0,0,1009.7,1024.2
10,2023-01-23T00:09:00,0.5,北東,1.2,東北東,3.5,85.1,0,0,0,0,0,0,1009.6,1024.1
11,2023-01-23T00:10:00,0.5,北北東,1.2,東北東,3.5,85.2,0,0,0,0,0,0,1009.7,1024.2
12,2023-01-23T00:11:00,0.5,北北東,1.2,東北東,3.4,85.1,0,0,0,0,0,0,1009.6,1024.1
13,2023-01-23T00:12:00,0.5,北北東,1.2,東北東,3.5,85.2,0,0,0,0,0,0,1009.6,1024.1
14,2023-01-23T00:13:00,0.5,北,1.1,東,3.5,85.4,0,0,0,0,0,0,1009.6,1024.1
15,2023-01-23T00:14:00,0.5,北,1,北西,3.5,85.7,0,0,0,0,0,0,1009.6,1024.1
16,2023-01-23T00:15:00,0.5,北北西,1,北西,3.5,85.6,0,0,0,0,0,0,1009.6,1024.1
17,2023-01-23T00:16:00,0.5,北北西,1,北西,3.4,85.5,0,0,0,0,0,0,1009.5,1024
18,2023-01-23T00:17:00,0.5,北北西,1,北西,3.3,85.2,0,0,0,0,0,0,1009.5,1024
19,2023-01-23T00:18:00,0.4,北北西,1,北西,3.4,85.2,0,0,0,0,0,0,1009.5,1024
20,2023-01-23T00:19:00,0.4,北北西,1,北西,3.4,85.5,0,0,0,0,0,0,1009.5,1024
21,2023-01-23T00:20:00,0.5,北北西,1,北西,3.5,85.8,0,0,0,0,0,0,1009.5,1024
22,2023-01-23T00:21:00,0.5,北北西,1,北西,3.5,85.8,0,0,0,0,0,0,1009.5,1024
23,2023-01-23T00:22:00,0.5,北北西,1,北北東,3.5,85.9,0,0,0,0,0,0,1009.4,1023.9
24,2023-01-23T00:23:00,0.5,北,1.3,北北東,3.5,85.8,0,0,0,0,0,0,1009.5,1024
25,2023-01-23T00:24:00,0.5,北,1.3,北北東,3.6,85.8,0,0,0,0,0,0,1009.4,1023.9
26,2023-01-23T00:25:00,0.5,北,1.3,北北東,3.5,85.6,0,0,0,0,0,0,1009.5,1024
27,2023-01-23T00:26:00,0.5,北,1.3,北北東,3.4,85.3,0,0,0,0,0,0,1009.5,1024
28,2023-01-23T00:27:00,0.5,北,1.3,北北東,3.4,85.1,0,0,0,0,0,0,1009.5,1024
29,2023-01-23T00:28:00,0.5,北,1.3,北北東,3.4,85.1,0,0,0,0,0,0,1009.5,1024
30,2023-01-23T00:29:00,0.5,北,1.3,北北東,3.6,85.3,0,0,0,0,0,0,1009.6,1024.1
31,2023-01-23T00:30:00,0.5,北,1.3,北北東,3.5,85.5,0,0,0,0,0,0,1009.6,1024.1
32,2023-01-23T00:31:00,0.4,北,1.3,北北東,3.4,85.1,0,0,0,0,0,0,1009.6,1024.1
33,2023-01-23T00:32:00,0.4,北北東,1.3,北北東,3.5,85.2,0,0,0,0,0,0,1009.5,1024
34,2023-01-23T00:33:00,0.3,北北東,1.1,北北東,3.5,85.5,0,0,0,0,0,0,1009.5,1024
35,2023-01-23T00:34:00,0.3,北北東,1.1,北北東,3.4,85.2,0,0,0,0,0,0,1009.5,1024
36,2023-01-23T00:35:00,0.3,北北東,1.1,北北東,3.5,85.4,0,0,0,0,0,0,1009.5,1024
37,2023-01-23T00:36:00,0.2,静穏,1.1,北北東,3.5,85.6,0,0,0,0,0,0,1009.5,1024
38,2023-01-23T00:37:00,0.2,静穏,1.1,北北東,3.4,85.4,0,0,0,0,0,0,1009.5,1024
39,2023-01-23T00:38:00,0.2,静穏,0.6,北,3.6,85.5,0,0,0,0,0,0,1009.5,1024
40,2023-01-23T00:39:00,0.1,静穏,0.5,東北東,3.4,85.3,0,0,0,0,0,0,1009.5,1024
41,2023-01-23T00:40:00,0.1,静穏,0.5,東北東,3.3,85.1,0,0,0,0,0,0,1009.5,1024
42,2023-01-23T00:41:00,0.1,静穏,0.8,北北西,3.4,85,0,0,0,0,0,0,1009.6,1024.1
43,2023-01-23T00:42:00,0.2,静穏,0.8,北北西,3.4,85.2,0,0,0,0,0,0,1009.6,1024.1
44,2023-01-23T00:43:00,0.1,静穏,0.8,北北西,3.4,85.4,0,0,0,0,0,0,1009.6,1024.1
45,2023-01-23T00:44:00,0.1,静穏,0.8,北北西,3.3,85,0,0,0,0,0,0,1009.5,1024
46,2023-01-23T00:45:00,0.1,静穏,0.8,北北西,3.3,85.1,0,0,0,0,0,0,1009.5,1024
47,2023-01-23T00:46:00,0.2,静穏,0.8,北北西,3.4,85.3,0,0,0,0,0,0,1009.5,1024
48,2023-01-23T00:47:00,0.2,静穏,0.8,北北西,3.5,85.7,0,0,0,0,0,0,1009.5,1024
49,2023-01-23T00:48:00,0.2,静穏,0.8,北北西,3.3,85.3,0,0,0,0,0,0,1009.5,1024
50,2023-01-23T00:49:00,0.2,静穏,0.8,北北西,3.3,85,0,0,0,0,0,0,1009.4,1023.9
51,2023-01-23T00:50:00,0.2,静穏,0.8,北北西,3.3,85,0,0,0,0,0,0,1009.4,1023.9
52,2023-01-23T00:51:00,0.2,静穏,0.7,東北東,3.3,85.3,0,0,0,0,0,0,1009.3,1023.8
53,2023-01-23T00:52:00,0.2,静穏,0.7,東北東,3.3,85,0,0,0,0,0,0,1009.4,1023.9
54,2023-01-23T00:53:00,0.2,静穏,0.7,東北東,3.2,84.8,0,0,0,0,0,0,1009.4,1023.9
55,2023-01-23T00:54:00,0.2,静穏,0.7,東北東,3.2,84.8,0,0,0,0,0,0,1009.3,1023.8
56,2023-01-23T00:55:00,0.2,静穏,0.7,東北東,3.2,84.9,0,0,0,0,0,0,1009.3,1023.8
57,2023-01-23T00:56:00,0.2,静穏,0.5,東北東,3.3,85.3,0,0,0,0,0,0,1009.3,1023.8
58,2023-01-23T00:57:00,0.1,静穏,0.5,東北東,3.4,85.5,0,0,0,0,0,0,1009.4,1023.9
59,2023-01-23T00:58:00,0.1,静穏,0.5,東北東,3.4,85.6,0,0,0,0,0,0,1009.4,1023.9
60,2023-01-23T00:59:00,0.1,静穏,0.5,東北東,3.4,85.6,0,0,0,0,0,0,1009.5,1024
61,2023-01-23T01:00:00,0.1,静穏,0.5,東北東,3.4,85.2,0,0,0,0,0,0,1009.4,1023.9
62,2023-01-23T01:01:00,0.1,静穏,0.3,東南東,3.5,85.3,0,0,0,0,0,0,1009.5,1024
63,2023-01-23T01:02:00,0.1,静穏,0.5,北北東,3.5,85.3,0,0,0,0,0,0,1009.4,1023.9
64,2023-01-23T01:03:00,0.1,静穏,0.5,北北東,3.5,85.1,0,0,0,0,0,0,1009.4,1023.9
65,2023-01-23T01:04:00,0.1,静穏,0.5,北北東,3.6,85.3,0,0,0,0,0,0,1009.5,1024
66,2023-01-23T01:05:00,0.1,静穏,0.5,北北東,3.5,84.9,0,0,0,0,0,0,1009.6,1024.1
67,2023-01-23T01:06:00,0.2,静穏,0.6,西北西,3.6,84.9,0,0,0,0,0,0,1009.6,1024.1
68,2023-01-23T01:07:00,0.2,静穏,0.6,西北西,3.5,84.9,0,0,0,0,0,0,1009.6,1024.1
69,2023-01-23T01:08:00,0.2,静穏,0.6,西北西,3.5,84.7,0,0,0,0,0,0,1009.6,1024.1
70,2023-01-23T01:09:00,0.3,北西,0.7,北西,3.5,84.6,0,0,0,0,0,0,1009.5,1024
71,2023-01-23T01:10:00,0.3,北西,0.7,北西,3.5,84.7,0,0,0,0,0,0,1009.6,1024.1
72,2023-01-23T01:11:00,0.3,北西,0.7,北西,3.5,84.8,0,0,0,0,0,0,1009.6,1024.1
73,2023-01-23T01:12:00,0.3,北西,0.7,北西,3.5,84.9,0,0,0,0,0,0,1009.6,1024.1
74,2023-01-23T01:13:00,0.3,北西,0.7,北西,3.6,85.2,0,0,0,0,0,0,1009.5,1024
75,2023-01-23T01:14:00,0.3,北西,0.7,北西,3.6,85.3,0,0,0,0,0,0,1009.6,1024.1
76,2023-01-23T01:15:00,0.3,北西,0.7,北西,3.5,85.5,0,0,0,0,0,0,1009.6,1024.1
77,2023-01-23T01:16:00,0.3,西北西,0.7,北西,3.5,85.1,0,0,0,0,0,0,1009.6,1024.1
78,2023-01-23T01:17:00,0.3,西北西,0.8,西,3.4,85.1,0,0,0,0,0,0,1009.7,1024.2
79,2023-01-23T01:18:00,0.3,西北西,0.8,西,3.4,85.1,0,0,0,0,0,0,1009.7,1024.2
80,2023-01-23T01:19:00,0.3,西北西,0.8,西,3.4,85.3,0,0,0,0,0,0,1009.7,1024.2
81,2023-01-23T01:20:00,0.3,西北西,0.8,西,3.4,85.5,0,0,0,0,0,0,1009.7,1024.2
82,2023-01-23T01:21:00,0.3,西北西,0.8,西,3.5,85.9,0,0,0,0,0,0,1009.7,1024.2
83,2023-01-23T01:22:00,0.3,西北西,0.8,西,3.4,85.9,0,0,0,0,0,0,1009.7,1024.2
84,2023-01-23T01:23:00,0.3,西北西,0.8,西,3.4,85.9,0,0,0,0,0,0,1009.8,1024.3
85,2023-01-23T01:24:00,0.3,西北西,0.8,西,3.4,85.9,0,0,0,0,0,0,1009.8,1024.3
86,2023-01-23T01:25:00,0.3,西北西,0.9,西北西,3.3,86,0,0,0,0,0,0,1009.7,1024.2
87,2023-01-23T01:26:00,0.3,西北西,1,西,3.3,86,0,0,0,0,0,0,1009.8,1024.3
88,2023-01-23T01:27:00,0.3,西北西,1,西,3.3,86.2,0,0,0,0,0,0,1009.7,1024.2
89,2023-01-23T01:28:00,0.4,西北西,1,西,3.4,86.4,0,0,0,0,0,0,1009.7,1024.2
90,2023-01-23T01:29:00,0.4,西北西,1,西,3.3,86.3,0,0,0,0,0,0,1009.7,1024.2
91,2023-01-23T01:30:00,0.4,西北西,1,西,3.3,86.4,0,0,0,0,0,0,1009.6,1024.1
92,2023-01-23T01:31:00,0.5,西,1,西,3.4,86.7,0,0,0,0,0,0,1009.6,1024.1
93,2023-01-23T01:32:00,0.5,西,1,西,3.4,86.8,0,0,0,0,0,0,1009.7,1024.2
94,2023-01-23T01:33:00,0.6,西,1,西,3.4,87,0,0,0,0,0,0,1009.7,1024.2
95,2023-01-23T01:34:00,0.6,西,1,西,3.4,87.2,0,0,0,0,0,0,1009.7,1024.2
96,2023-01-23T01:35:00,0.6,西,1,西,3.4,87.1,0,0,0,0,0,0,1009.8,1024.3
97,2023-01-23T01:36:00,0.6,西,1,西,3.3,87,0,0,0,0,0,0,1009.7,1024.2
98,2023-01-23T01:37:00,0.6,西,1,西,3.4,87,0,0,0,0,0,0,1009.7,1024.2
99,2023-01-23T01:38:00,0.7,西,1,西,3.3,87,0,0,0,0,0,0,1009.7,1024.2
100,2023-01-23T01:39:00,0.7,西,1,西,3.3,86.8,0,0,0,0,0,0,1009.8,1024.3
101,2023-01-23T01:40:00,0.7,西,1.1,西,3.4,87.1,0,0,0,0,0,0,1009.8,1024.3
102,2023-01-23T01:41:00,0.8,西,1.2,西北西,3.4,87.4,0,0,0,0,0,0,1009.8,1024.3
103,2023-01-23T01:42:00,0.8,西,1.2,西北西,3.5,87.4,0,0,0,0,0,0,1009.8,1024.3
104,2023-01-23T01:43:00,0.8,西,1.2,西北西,3.5,87.6,0,0,0,0,0,0,1009.8,1024.3
105,2023-01-23T01:44:00,0.9,西,1.3,西,3.6,87.5,0,0,0,0,0,0,1009.8,1024.3
106,2023-01-23T01:45:00,0.9,西,1.4,西,3.3,87.1,0,0,0,0,0,0,1009.9,1024.4
107,2023-01-23T01:46:00,1,西,1.7,西,3.2,86.3,0,0,0,0,0,0,1009.9,1024.5
108,2023-01-23T01:47:00,1,西,1.7,西,3.1,86.2,0,0,0,0,0,0,1009.9,1024.5
109,2023-01-23T01:48:00,1,西,1.7,西,3.1,86.4,0,0,0,0,0,0,1009.8,1024.4
110,2023-01-23T01:49:00,1.1,西,1.7,西,3,86.3,0,0,0,0,0,0,1009.7,1024.3
111,2023-01-23T01:50:00,1,西,1.7,西,3.2,86.7,0,0,0,0,0,0,1009.8,1024.4
112,2023-01-23T01:51:00,1,西,1.7,西,3.4,87.6,0,0,0,0,0,0,1009.8,1024.3
113,2023-01-23T01:52:00,1,西,1.7,西,3.3,87.7,0,0,0,0,0,0,1009.7,1024.2
114,2023-01-23T01:53:00,0.9,西,1.7,西,3.2,87.2,0,0,0,0,0,0,1009.8,1024.4
115,2023-01-23T01:54:00,0.9,西,1.7,西,3.2,87.2,0,0,0,0,0,0,1009.8,1024.4
116,2023-01-23T01:55:00,0.8,西,1.7,西,3.3,87.7,0,0,0,0,0,0,1009.7,1024.2
117,2023-01-23T01:56:00,0.7,西,1.2,西,3.2,87.5,0,0,0,0,0,0,1009.7,1024.3
118,2023-01-23T01:57:00,0.7,西,1.2,西,3.2,87.6,0,0,0,0,0,0,1009.8,1024.4
119,2023-01-23T01:58:00,0.7,西,1.1,西,3.3,87.8,0,0,0,0,0,0,1009.7,1024.2
120,2023-01-23T01:59:00,0.7,西,1,西南西,3.3,87.9,0,0,0,0,0,0,1009.7,1024.2
121,2023-01-23T02:00:00,0.7,西,1,西南西,3.3,88.2,0,0,0,0,0,0,1009.6,1024.1
122,2023-01-23T02:01:00,0.7,西,1,西北西,3.5,88.5,0,0,0,0,0,0,1009.7,1024.2
123,2023-01-23T02:02:00,0.7,西北西,1,西北西,3.4,88.6,0,0,0,0,0,0,1009.7,1024.2
124,2023-01-23T02:03:00,0.7,西北西,1,西北西,3.4,88.6,0,0,0,0,0,0,1009.7,1024.2
125,2023-01-23T02:04:00,0.7,西北西,1,西北西,3.4,88.5,0,0,0,0,0,0,1009.7,1024.2
126,2023-01-23T02:05:00,0.7,西北西,1.1,西北西,3.4,88.6,0,0,0,0,0,0,1009.7,1024.2
127,2023-01-23T02:06:00,0.7,西北西,1.1,西北西,3.4,88.7,0,0,0,0,0,0,1009.6,1024.1
128,2023-01-23T02:07:00,0.8,西北西,1.1,西北西,3.2,88.4,0,0,0,0,0,0,1009.7,1024.3
129,2023-01-23T02:08:00,0.8,西北西,1.1,西北西,3.3,88.3,0,0,0,0,0,0,1009.7,1024.2
130,2023-01-23T02:09:00,0.8,西北西,1.3,西,3.4,89.1,0,0,0,0,0,0,1009.7,1024.2
131,2023-01-23T02:10:00,0.9,西北西,1.3,西,3.2,88.7,0,0,0,0,0,0,1009.7,1024.3
132,2023-01-23T02:11:00,0.9,西,1.5,西,3.1,88.5,0,0,0,0,0,0,1009.7,1024.3
133,2023-01-23T02:12:00,0.9,西,1.5,西,3.1,88.4,0,0,0,0,0,0,1009.7,1024.3
134,2023-01-23T02:13:00,0.9,西,1.5,西,3.2,89,0,0,0,0,0,0,1009.8,1024.4
135,2023-01-23T02:14:00,1,西,1.5,西,3.1,89.1,0,0,0,0,0,0,1009.8,1024.4
136,2023-01-23T02:15:00,1,西,1.5,西,3.1,89.1,0,0,0,0,0,0,1009.8,1024.4
137,2023-01-23T02:16:00,1,西,1.5,西,2.9,88.8,0,0,0,0,0,0,1009.8,1024.4
138,2023-01-23T02:17:00,1,西,1.5,西,3.1,89.4,0,0,0,0,0,0,1009.7,1024.3
139,2023-01-23T02:18:00,1,西,1.5,西,3,89.7,0,0,0,0,0,0,1009.7,1024.3
140,2023-01-23T02:19:00,1,西,1.5,西,3.1,89.5,0,0,0,0,0,0,1009.7,1024.3
141,2023-01-23T02:20:00,0.9,西,1.5,西,3,89.9,0,0,0,0,0,0,1009.7,1024.3
142,2023-01-23T02:21:00,0.9,西,1.4,西,3,89.7,0,0,0,0,0,0,1009.7,1024.3
143,2023-01-23T02:22:00,0.9,西,1.3,西,3.1,90.1,0,0,0,0,0,0,1009.7,1024.3
144,2023-01-23T02:23:00,0.8,西,1.3,西,3.2,90.4,0,0,0,0,0,0,1009.6,1024.2
145,2023-01-23T02:24:00,0.7,西,1.3,西,3.1,90.3,0,0,0,0,0,0,1009.6,1024.2
146,2023-01-23T02:25:00,0.6,西北西,1.3,西,3.1,90.3,0,0,0,0,0,0,1009.6,1024.2
147,2023-01-23T02:26:00,0.6,西北西,1.3,西,3.1,90.6,0,0,0,0,0,0,1009.6,1024.2
148,2023-01-23T02:27:00,0.5,西北西,1.1,西,3,90.4,0,0,0,0,0,0,1009.5,1024.1
149,2023-01-23T02:28:00,0.5,西北西,1,西,3.1,90.6,0,0,0,0,0,0,1009.4,1024
150,2023-01-23T02:29:00,0.5,西北西,1,西,3,90.7,0,0,0,0,0,0,1009.4,1024
151,2023-01-23T02:30:00,0.4,西北西,1,西,2.9,90.5,0,0,0,0,0,0,1009.3,1023.9
152,2023-01-23T02:31:00,0.4,北西,1,西,3.2,91,0,0,0,0,0,0,1009.4,1023.9
153,2023-01-23T02:32:00,0.4,北西,1,西,3.1,91.4,0,0,0,0,0,0,1009.4,1024
154,2023-01-23T02:33:00,0.3,北北西,1,北東,3.2,91.5,0,0,0,0,0,0,1009.4,1023.9
155,2023-01-23T02:34:00,0.3,北北西,1,北東,3.1,91.4,0,0,0,0,0,0,1009.3,1023.9
156,2023-01-23T02:35:00,0.4,北北西,1,北東,3.2,91.7,0,0,0,0,0,0,1009.3,1023.8
157,2023-01-23T02:36:00,0.4,北,1,北東,3.3,91.9,0,0,0,0,0,0,1009.3,1023.8
158,2023-01-23T02:37:00,0.5,北,1.3,北,3.4,92.3,0,0,0,0,0,0,1009.3,1023.8
159,2023-01-23T02:38:00,0.5,北,1.3,北,3.4,92.3,0,0,0,0,0,0,1009.3,1023.8
160,2023-01-23T02:39:00,0.5,北北東,1.3,北,3.3,92.1,0,0,0,0,0,0,1009.2,1023.7
161,2023-01-23T02:40:00,0.6,北,1.3,北,3.3,92,0,0,0,0,0,0,1009.2,1023.7
162,2023-01-23T02:41:00,0.6,北,1.3,北,3.2,91.9,0,0,0,0,0,0,1009.2,1023.7
163,2023-01-23T02:42:00,0.5,北,1.3,北,3.2,91.9,0,0,0,0,0,0,1009.3,1023.8
164,2023-01-23T02:43:00,0.6,北,1.3,北,3.2,91.9,0,0,0,0,0,0,1009.3,1023.8
165,2023-01-23T02:44:00,0.6,北,1.3,北,3.1,91.9,0,0,0,0,0,0,1009.3,1023.9
166,2023-01-23T02:45:00,0.6,北,1.3,北,3.2,92.1,0,0,0,0,0,0,1009.2,1023.7
167,2023-01-23T02:46:00,0.6,北北西,1.3,北,3.2,92,0,0,0,0,0,0,1009.2,1023.7
168,2023-01-23T02:47:00,0.5,北北西,1.2,北,3.2,92.3,0,0,0,0,0,0,1009.2,1023.7
169,2023-01-23T02:48:00,0.5,北北西,1.2,北,3.1,91.9,0,0,0,0,0,0,1009.2,1023.8
170,2023-01-23T02:49:00,0.5,北北西,1.2,北,3.1,92,0,0,0,0,0,0,1009.3,1023.9
171,2023-01-23T02:50:00,0.4,北北西,1.2,北,3.1,92.2,0,0,0,0,0,0,1009.2,1023.8
172,2023-01-23T02:51:00,0.5,北北西,1.2,北,3.3,92.5,0,0,0,0,0,0,1009.2,1023.7
173,2023-01-23T02:52:00,0.5,北北西,1.2,北,3.3,92.9,0,0,0,0,0,0,1009.2,1023.7
174,2023-01-23T02:53:00,0.5,北北西,1.2,北,3.3,92.7,0,0,0,0,0,0,1009.2,1023.7
175,2023-01-23T02:54:00,0.6,北西,1.2,北,3.3,92.7,0,0,0,0,0,0,1009.2,1023.7
176,2023-01-23T02:55:00,0.6,北西,1.2,北,3.3,92.7,0,0,0,0,0,0,1009.2,1023.7
177,2023-01-23T02:56:00,0.6,北西,1.1,西北西,3.2,92.4,0,0,0,0,0,0,1009.2,1023.7
178,2023-01-23T02:57:00,0.6,北西,1.1,西北西,3.1,92.4,0,0,0,0,0,0,1009.1,1023.6
179,2023-01-23T02:58:00,0.6,北西,1.1,西北西,3.1,92.4,0,0,0,0,0,0,1009.2,1023.8
180,2023-01-23T02:59:00,0.6,北西,1.1,西北西,3.2,92.6,0,0,0,0,0,0,1009.1,1023.6
181,2023-01-23T03:00:00,0.7,北西,1.1,西北西,3.1,92.5,0,0,0,0,0,0,1009.1,1023.6
182,2023-01-23T03:01:00,0.7,北西,1.1,西北西,3.1,92.6,0,0,0,0,0,0,1009.1,1023.6
183,2023-01-23T03:02:00,0.7,北西,1.1,西北西,3.1,92.7,0,0,0,0,0,0,1009.1,1023.6
184,2023-01-23T03:03:00,0.7,北西,1,北西,3.2,92.8,0,0,0,0,0,0,1009.1,1023.6
185,2023-01-23T03:04:00,0.7,北西,1,北西,3.2,93.1,0,0,0,0,0,0,1009.2,1023.7
186,2023-01-23T03:05:00,0.7,西北西,1,北西,3.2,92.9,0,0,0,0,0,0,1009.2,1023.7
187,2023-01-23T03:06:00,0.7,西北西,1,北西,3,92.9,0,0,0,0,0,0,1009.2,1023.8
188,2023-01-23T03:07:00,0.6,西北西,1,北西,3,92.8,0,0,0,0,0,0,1009.1,1023.7
189,2023-01-23T03:08:00,0.7,西北西,1,北西,3,92.8,0,0,0,0,0,0,1009.1,1023.7
190,2023-01-23T03:09:00,0.7,西北西,1,北西,3,93,0,0,0,0,0,0,1009.1,1023.7
191,2023-01-23T03:10:00,0.7,西北西,1,北西,3,92.9,0,0,0,0,0,0,1009.2,1023.8
192,2023-01-23T03:11:00,0.7,西,1,西,3,92.9,0,0,0,0,0,0,1009.2,1023.8
193,2023-01-23T03:12:00,0.7,西,1.2,西,2.9,92.8,0,0,0,0,0,0,1009.2,1023.8
194,2023-01-23T03:13:00,0.7,西,1.3,西,2.8,92.7,0,0,0,0,0,0,1009.3,1023.9
195,2023-01-23T03:14:00,0.7,西,1.4,西南西,3,93.1,0,0,0,0,0,0,1009.3,1023.9
196,2023-01-23T03:15:00,0.8,西,1.7,西,2.8,93.1,0,0,0,0,0,0,1009.4,1024
197,2023-01-23T03:16:00,0.9,西,2,西,2.8,92.8,0,0,0,0,0,0,1009.3,1023.9
198,2023-01-23T03:17:00,1,西,2,西,3.1,93.1,0,0,0,0,0,0,1009.3,1023.9
199,2023-01-23T03:18:00,1,西,2,西,3.3,94.1,0,0,0,0,0,0,1009.2,1023.7
200,2023-01-23T03:19:00,1,西,2,西,3.1,93.9,0,0,0,0,0,0,1009.2,1023.8
201,2023-01-23T03:20:00,1,西,2,西,3,93.5,0,0,0,0,0,0,1009.1,1023.7
202,2023-01-23T03:21:00,1,西,2,西,3.1,93.5,0,0,0,0,0,0,1009.1,1023.6
203,2023-01-23T03:22:00,1,西,2,西,3,93,0,0,0,0,0,0,1009.1,1023.7
204,2023-01-23T03:23:00,1,西,2,西,2.9,92.8,0,0,0,0,0,0,1009.1,1023.7
205,2023-01-23T03:24:00,1,西,2,西,2.7,92.4,0,0,0,0,0,0,1009.1,1023.7
206,2023-01-23T03:25:00,1,西,2,西,2.8,92.4,0,0,0,0,0,0,1009,1023.6
207,2023-01-23T03:26:00,0.9,西,1.5,西北西,2.8,92.6,0,0,0,0,0,0,1009,1023.6
208,2023-01-23T03:27:00,0.9,西,1.5,西北西,2.9,93,0,0,0,0,0,0,1009.1,1023.7
209,2023-01-23T03:28:00,0.9,西,1.5,西北西,3,93.4,0,0,0,0,0,0,1009,1023.6
210,2023-01-23T03:29:00,0.9,西,1.5,西北西,2.9,93.2,0,0,0,0,0,0,1009,1023.6
211,2023-01-23T03:30:00,1,西,1.5,西北西,2.9,93.1,0,0,0,0,0,0,1009,1023.6
212,2023-01-23T03:31:00,1,西,1.6,西,2.8,93,0,0,0,0,0,0,1009.1,1023.7
213,2023-01-23T03:32:00,1,西,1.6,西,3,93.3,0,0,0,0,0,0,1009.1,1023.7
214,2023-01-23T03:33:00,1,西北西,1.6,西,3.1,93.4,0,0,0,0,0,0,1009.1,1023.6
215,2023-01-23T03:34:00,1,西北西,1.6,西,3.1,93.7,0,0,0,0,0,0,1009.1,1023.6
216,2023-01-23T03:35:00,1,西北西,1.6,西,3.1,93.5,0,0,0,0,0,0,1009.1,1023.6
217,2023-01-23T03:36:00,1,西北西,1.6,西,3,93.5,0,0,0,0,0,0,1009.1,1023.7
218,2023-01-23T03:37:00,1,西北西,1.6,西,3.1,93.4,0,0,0,0,0,0,1009.1,1023.6
219,2023-01-23T03:38:00,1,西北西,1.6,西,3.1,93.7,0,0,0,0,0,0,1009,1023.5
220,2023-01-23T03:39:00,1,西北西,1.6,西,2.9,93.2,0,0,0,0,0,0,1009.1,1023.7
221,2023-01-23T03:40:00,1,西北西,1.6,西,2.8,93.1,0,0,0,0,0,0,1009.1,1023.7
222,2023-01-23T03:41:00,0.9,西北西,1.6,西,2.7,92.8,0,0,0,0,0,0,1009.1,1023.7
223,2023-01-23T03:42:00,0.8,西北西,1.6,西,2.7,92.9,0,0,0,0,0,0,1009.1,1023.7
224,2023-01-23T03:43:00,0.8,西,1.6,西,2.8,93.1,0,0,0,0,0,0,1009.1,1023.7
225,2023-01-23T03:44:00,0.8,西北西,1.6,西,2.8,93.6,0,0,0,0,0,0,1009.1,1023.7
226,2023-01-23T03:45:00,0.7,西北西,1.6,西,2.7,93.5,0,0,0,0,0,0,1009,1023.6
227,2023-01-23T03:46:00,0.6,西北西,1.5,西,2.7,93.4,0,0,0,0,0,0,1009,1023.6
228,2023-01-23T03:47:00,0.5,北西,1.5,西,2.8,93.6,0,0,0,0,0,0,1008.9,1023.5
229,2023-01-23T03:48:00,0.4,北西,1.5,西,2.8,93.9,0,0,0,0,0,0,1008.8,1023.4
230,2023-01-23T03:49:00,0.4,北西,1.5,西,2.8,93.9,0,0,0,0,0,0,1008.8,1023.4
231,2023-01-23T03:50:00,0.4,北北西,1.2,西,2.8,94.1,0,0,0,0,0,0,1008.9,1023.5
232,2023-01-23T03:51:00,0.3,北,1.2,西,2.9,94.4,0,0,0,0,0,0,1008.9,1023.5
233,2023-01-23T03:52:00,0.3,北,1.2,西,2.8,94.2,0,0,0,0,0,0,1008.9,1023.5
234,2023-01-23T03:53:00,0.2,静穏,0.9,北,2.8,93.9,0,0,0,0,0,0,1008.9,1023.5
235,2023-01-23T03:54:00,0.2,静穏,0.9,北,2.8,94.2,0,0,0,0,0,0,1008.9,1023.5
236,2023-01-23T03:55:00,0.2,静穏,0.9,北,2.9,94.6,0,0,0,0,0,0,1008.8,1023.4
237,2023-01-23T03:56:00,0.2,静穏,0.9,北,2.8,94.5,0,0,0,0,0,0,1008.8,1023.4
238,2023-01-23T03:57:00,0.2,静穏,0.9,北,2.8,94.4,0,0,0,0,0,0,1008.8,1023.4
239,2023-01-23T03:58:00,0.2,静穏,0.9,北,2.8,94.5,0,0,0,0,0,0,1008.8,1023.4
240,2023-01-23T03:59:00,0.2,静穏,0.9,西北西,2.8,94.6,0,0,0,0,0,0,1008.7,1023.3
241,2023-01-23T04:00:00,0.3,北北西,0.9,西北西,2.8,94.6,0,0,0,0,0,0,1008.7,1023.3
242,2023-01-23T04:01:00,0.3,北西,1.1,北西,3,94.9,0,0,0,0,0,0,1008.7,1023.2
243,2023-01-23T04:02:00,0.4,北西,1.1,北西,3.1,95.2,0,0,0,0,0,0,1008.7,1023.2
244,2023-01-23T04:03:00,0.5,北西,1.2,西,3.2,95.4,0,0,0,0,0,0,1008.7,1023.2
245,2023-01-23T04:04:00,0.6,北西,1.2,西,3.2,95.3,0,0,0,0,0,0,1008.7,1023.2
246,2023-01-23T04:05:00,0.7,西北西,1.2,西,3,95,0,0,0,0,0,0,1008.7,1023.2
247,2023-01-23T04:06:00,0.7,西北西,1.2,西,2.9,94.9,0,0,0,0,0,0,1008.7,1023.3
248,2023-01-23T04:07:00,0.7,西北西,1.2,西,2.9,94.6,0,0,0,0,0,0,1008.8,1023.4
249,2023-01-23T04:08:00,0.7,西北西,1.2,西,2.8,94.5,0,0,0,0,0,0,1008.8,1023.4
250,2023-01-23T04:09:00,0.8,西北西,1.2,西,2.8,94.5,0,0,0,0,0,0,1008.8,1023.4
251,2023-01-23T04:10:00,0.7,西,1.2,西,2.8,94.5,0,0,0,0,0,0,1008.7,1023.3
252,2023-01-23T04:11:00,0.7,西,1.2,西,2.8,94.6,0,0,0,0,0,0,1008.7,1023.3
253,2023-01-23T04:12:00,0.7,西,1.2,西,2.8,94.7,0,0,0,0,0,0,1008.6,1023.2
254,2023-01-23T04:13:00,0.6,西,1.1,西,2.8,94.8,0,0,0,0,0,0,1008.6,1023.2
255,2023-01-23T04:14:00,0.6,西,1.1,西,2.8,94.8,0,0,0,0,0,0,1008.7,1023.3
256,2023-01-23T04:15:00,0.5,西,1.1,西,2.7,94.6,0,0,0,0,0,0,1008.6,1023.2
257,2023-01-23T04:16:00,0.4,西,1,西南西,2.8,94.8,0,0,0,0,0,0,1008.6,1023.2
258,2023-01-23T04:17:00,0.4,西,1,西南西,2.8,95.2,0,0,0,0,0,0,1008.6,1023.2
259,2023-01-23T04:18:00,0.3,西,0.9,西,3,95.3,0,0,0,0,0,0,1008.7,1023.2
260,2023-01-23T04:19:00,0.3,西北西,0.9,西,2.9,95.3,0,0,0,0,0,0,1008.7,1023.3
261,2023-01-23T04:20:00,0.2,静穏,0.8,西,2.7,94.6,0,0,0,0,0,0,1008.7,1023.3
262,2023-01-23T04:21:00,0.1,静穏,0.7,西北西,2.7,94.6,0,0,0,0,0,0,1008.7,1023.3
263,2023-01-23T04:22:00,0.1,静穏,0.7,西南西,2.7,94.8,0,0,0,0,0,0,1008.7,1023.3
264,2023-01-23T04:23:00,0.1,静穏,0.9,西,2.9,95,0,0,0,0,0,0,1008.7,1023.3
265,2023-01-23T04:24:00,0.2,静穏,1,西,2.7,95.3,0,0,0,0,0,0,1008.8,1023.4
266,2023-01-23T04:25:00,0.3,西,1,西,2.6,94.7,0,0,0,0,0,0,1008.8,1023.4
267,2023-01-23T04:26:00,0.3,西,1,西,2.7,94.9,0,0,0,0,0,0,1008.8,1023.4
268,2023-01-23T04:27:00,0.4,西,1,西,2.8,95,0,0,0,0,0,0,1008.8,1023.4
269,2023-01-23T04:28:00,0.4,西,1,西,2.8,95.2,0,0,0,0,0,0,1008.7,1023.3
270,2023-01-23T04:29:00,0.4,西,1,西,2.9,95.2,0,0,0,0,0,0,1008.7,1023.3
271,2023-01-23T04:30:00,0.4,西北西,1,西,2.8,95.2,0,0,0,0,0,0,1008.7,1023.3
272,2023-01-23T04:31:00,0.5,西北西,1,西,2.9,95.1,0,0,0,0,0,0,1008.7,1023.3
273,2023-01-23T04:32:00,0.5,西北西,1,西,2.9,95.3,0,0,0,0,0,0,1008.7,1023.3
274,2023-01-23T04:33:00,0.4,西北西,1,西,2.8,95.2,0,0,0,0,0,0,1008.6,1023.2
275,2023-01-23T04:34:00,0.4,西北西,0.9,西,2.8,94.9,0,0,0,0,0,0,1008.6,1023.2
276,2023-01-23T04:35:00,0.3,西北西,0.9,西,2.8,95.1,0,0,0,0,0,0,1008.6,1023.2
277,2023-01-23T04:36:00,0.3,北西,0.8,西北西,2.9,95.3,0,0,0,0,0,0,1008.6,1023.2
278,2023-01-23T04:37:00,0.2,静穏,0.5,西北西,2.8,95.1,0,0,0,0,0,0,1008.6,1023.2
279,2023-01-23T04:38:00,0.2,静穏,0.5,西北西,2.7,94.8,0,0,0,0,0,0,1008.6,1023.2
280,2023-01-23T04:39:00,0.2,静穏,0.5,西北西,2.7,94.9,0,0,0,0,0,0,1008.6,1023.2
281,2023-01-23T04:40:00,0.2,静穏,0.6,東北東,2.8,94.9,0,0,0,0,0,0,1008.6,1023.2
282,2023-01-23T04:41:00,0.2,静穏,0.8,北東,2.8,95.1,0,0,0,0,0,0,1008.6,1023.2
283,2023-01-23T04:42:00,0.2,静穏,0.8,北東,3,95.4,0,0,0,0,0,0,1008.6,1023.1
284,2023-01-23T04:43:00,0.2,静穏,0.8,北東,2.8,95.2,0,0,0,0,0,0,1008.7,1023.3
285,2023-01-23T04:44:00,0.2,静穏,0.8,北東,2.8,95.1,0,0,0,0,0,0,1008.7,1023.3
286,2023-01-23T04:45:00,0.2,静穏,0.8,北東,2.9,95.3,0,0,0,0,0,0,1008.7,1023.3
287,2023-01-23T04:46:00,0.2,静穏,0.8,北東,3,95.4,0,0,0,0,0,0,1008.6,1023.1
288,2023-01-23T04:47:00,0.3,北北東,0.9,北東,3.1,95.4,0,0,0,0,0,0,1008.6,1023.1
289,2023-01-23T04:48:00,0.3,北東,0.9,北東,3,95.6,0,0,0,0,0,0,1008.6,1023.1
290,2023-01-23T04:49:00,0.4,北東,0.9,北東,2.9,95.4,0,0,0,0,0,0,1008.6,1023.2
291,2023-01-23T04:50:00,0.4,北東,1.4,北東,2.9,95,0,0,0,0,0,0,1008.6,1023.2
292,2023-01-23T04:51:00,0.4,北東,1.4,北東,2.9,95.1,0,0,0,0,0,0,1008.5,1023.1
293,2023-01-23T04:52:00,0.5,北東,1.4,北東,3,95.3,0,0,0,0,0,0,1008.5,1023
294,2023-01-23T04:53:00,0.5,北東,1.4,北東,3,95.3,0,0,0,0,0,0,1008.5,1023
295,2023-01-23T04:54:00,0.5,東北東,1.4,北東,3.1,95.4,0,0,0,0,0,0,1008.6,1023.1
296,2023-01-23T04:55:00,0.5,東北東,1.4,北東,3.2,95.5,0,0,0,0,0,0,1008.6,1023.1
297,2023-01-23T04:56:00,0.5,東北東,1.4,北東,3.2,95.5,0,0,0,0,0,0,1008.6,1023.1
298,2023-01-23T04:57:00,0.6,東北東,1.4,北東,3.2,95.4,0,0,0,0,0,0,1008.6,1023.1
299,2023-01-23T04:58:00,0.6,東北東,1.4,北東,3.1,95.3,0,0,0,0,0,0,1008.6,1023.1
300,2023-01-23T04:59:00,0.6,東北東,1.4,北東,3.1,95.2,0,0,0,0,0,0,1008.6,1023.1
301,2023-01-23T05:00:00,0.6,東北東,1.4,東北東,3.1,95,0,0,0,0,0,0,1008.6,1023.1
302,2023-01-23T05:01:00,0.6,東北東,1.4,東北東,2.9,94.7,0,0,0,0,0,0,1008.6,1023.2
303,2023-01-23T05:02:00,0.6,東北東,1.4,東北東,2.9,94.6,0,0,0,0,0,0,1008.6,1023.2
304,2023-01-23T05:03:00,0.6,東北東,1.4,東北東,2.9,94.5,0,0,0,0,0,0,1008.6,1023.2
305,2023-01-23T05:04:00,0.7,東北東,1.4,東北東,3,94.7,0,0,0,0,0,0,1008.6,1023.1
306,2023-01-23T05:05:00,0.7,東北東,1.4,東北東,3,94.8,0,0,0,0,0,0,1008.6,1023.1
307,2023-01-23T05:06:00,0.7,東北東,1.4,東北東,2.8,94.5,0,0,0,0,0,0,1008.7,1023.3
308,2023-01-23T05:07:00,0.7,東北東,1.3,東北東,2.8,94.5,0,0,0,0,0,0,1008.6,1023.2
309,2023-01-23T05:08:00,0.7,東北東,1.3,東北東,2.9,94.7,0,0,0,0,0,0,1008.6,1023.2
310,2023-01-23T05:09:00,0.7,東北東,1.3,東北東,3.1,94.9,0,0,0,0,0,0,1008.6,1023.1
311,2023-01-23T05:10:00,0.7,東北東,1.3,東北東,2.9,94.9,0,0,0,0,0,0,1008.7,1023.3
312,2023-01-23T05:11:00,0.6,東北東,1.3,東北東,2.9,94.6,0,0,0,0,0,0,1008.6,1023.2
313,2023-01-23T05:12:00,0.6,東北東,1.3,東北東,3,94.7,0,0,0,0,0,0,1008.7,1023.2
314,2023-01-23T05:13:00,0.6,東北東,1.3,東北東,3,94.9,0,0,0,0,0,0,1008.7,1023.2
315,2023-01-23T05:14:00,0.6,東北東,1.3,東北東,3.1,95,0,0,0,0,0,0,1008.7,1023.2
316,2023-01-23T05:15:00,0.5,東北東,1.2,東北東,2.9,94.8,0,0,0,0,0,0,1008.6,1023.2
317,2023-01-23T05:16:00,0.5,東北東,1.2,東北東,2.9,94.3,0,0,0,0,0,0,1008.7,1023.3
318,2023-01-23T05:17:00,0.5,東北東,1,東北東,2.9,94.5,0,0,0,0,0,0,1008.7,1023.3
319,2023-01-23T05:18:00,0.5,東北東,1,東北東,2.9,94.6,0,0,0,0,0,0,1008.7,1023.3
320,2023-01-23T05:19:00,0.4,東北東,0.9,北東,3,94.8,0,0,0,0,0,0,1008.7,1023.2
321,2023-01-23T05:20:00,0.4,東北東,0.9,北東,2.8,94.4,0,0,0,0,0,0,1008.6,1023.2
322,2023-01-23T05:21:00,0.5,東北東,0.9,北東,2.8,94.2,0,0,0,0,0,0,1008.7,1023.3
323,2023-01-23T05:22:00,0.5,東北東,1,東北東,2.8,94.3,0,0,0,0,0,0,1008.7,1023.3
324,2023-01-23T05:23:00,0.5,東北東,1,東北東,2.8,94.5,0,0,0,0,0,0,1008.8,1023.4
325,2023-01-23T05:24:00,0.5,東北東,1,東北東,2.8,94.5,0,0,0,0,0,0,1008.8,1023.4
326,2023-01-23T05:25:00,0.5,東北東,1,東北東,3,94.8,0,0,0,0,0,0,1008.7,1023.2
327,2023-01-23T05:26:00,0.5,東北東,1,東北東,2.9,95,0,0,0,0,0,0,1008.7,1023.3
328,2023-01-23T05:27:00,,"",,"",,,,,,,,,,
329,2023-01-23T05:28:00,0.4,東北東,1,東北東,2.9,94.5,0,0,0,0,0,0,1008.8,1023.4
330,2023-01-23T05:29:00,0.4,東北東,1,東北東,2.9,94.7,0,0,0,0,0,0,1008.8,1023.4
331,2023-01-23T05:30:00,0.4,東北東,1,東北東,2.8,94.4,0,0,0,0,0,0,1008.8,1023.4
332,2023-01-23T05:31:00,0.4,東北東,1,東北東,2.8,94.5,0,0,0,0,0,0,1008.7,1023.3
333,2023-01-23T05:32:00,0.4,東北東,1,東,2.8,94.6,0,0,0,0,0,0,1008.7,1023.3
334,2023-01-23T05:33:00,0.4,東北東,1,東,2.7,94.3,0,0,0,0,0,0,1008.7,1023.3